Arcata, CA (95518)

11:57 AM PST on February 26, 2017 (GMT -0800)
1 Harpst Street, Arcata, CA 95521 | | Change Station

Elev 20 ft 40.87 °N, 124.08 °W | Updated 1 second ago

Overcast
Overcast
46.9 °F
Feels Like 43 °F
N
8.1
Wind Variable Wind from SSW
Gusts 9.8 mph

Today
High -- | Low -- °F
--% Chance of Precip.
Yesterday
High -- | Low -- °F
Precip. -- in
Pressure 29.96 in
Visibility 9.0 miles
Clouds Scattered Clouds 2200 ft
Mostly Cloudy 3600 ft
Overcast 7000 ft
Windchill 43 °F
Dew Point 39 °F
Humidity 73%
Rainfall 0.09 in
Snow Depth Not available.
6:54 AM 6:04 PM
New Moon, 0% visible
METAR KACV 261953Z AUTO 21013G18KT 9SM -RA SCT022 BKN036 OVC070 07/05 A2993 RMK AO2 RAB40 SLP144 P0001 T00720050
Pressure 29.96 in
Visibility 9.0 miles
Clouds Scattered Clouds 2200 ft
Mostly Cloudy 3600 ft
Overcast 7000 ft
Windchill 43 °F
Dew Point 39 °F
Humidity 73%
Rainfall 0.09 in
Snow Depth Not available.
6:54 AM 6:04 PM
New Moon, 0% visible
METAR KACV 261953Z AUTO 21013G18KT 9SM -RA SCT022 BKN036 OVC070 07/05 A2993 RMK AO2 RAB40 SLP144 P0001 T00720050

Get Your Daily Forecast Email!

Thanks for signing up!

Be on the lookout for a verification email in your inbox.

You'll start receiving the daily forecast at 8 AM.

×

10-Day Weather Forecast

Almanac

Astronomy

Feb. 26, 2017 Rise Set
Actual Time
Civil Twilight
Nautical Twilight
Astronomical Twilight
Moon
Length of Visible Light
Length of Day
Tomorrow will be .
, % of the Moon is Illuminated

Today's Extremes

State Highs State Lows

Community

WunderPhotos

Upload Photos

1,962,540 photos uploaded!

WunderBlog® & News

Nearby

Air Quality

  Air Quality AQ Index Pollutant
Not available.

Snow Depth

Station Depth Elevation

Earthquake Activity

City Distance Mag. Time & Date
Minimum magnitude displayed is 2.5.

Coastal Water Temperatures

Place Temperature

Stations

Nearby Weather Stations

Station Location Temp. Windchill Dew Point Humidity Wind Precip. Elev Updated Type
                   

Watches & Warnings

There are currently no watches in effect.